CAPE
830 1144 1244 1160 400 210 208 226 395 539 655 562 513 471 496 565 920 1313 1321 1807 1921 2139 2174 2277 2264 2170 2030 2004 2151 2194 2149 2471 2517 2538 2552 2722 2688 3049 3201 2984 3038 3275 3029 3000 2987 3158 3401 3335 3372 3362 3675 3797 3847 4025 4126 4184 4105 3739 3872 4091 3864 3663 3566
912 1050 1129 1277 681 260 235 214 408 429 521 501 450 545 485 598 1021 1029 1354 1747 1877 2077 2071 2081 2213 2244 2081 2062 2020 2221 2303 2346 2497 2672 2431 2891 3122 3322 3156 3275 3141 3478 3549 3144 3201 3442 3282 3383 3274 3356 3582 3797 3676 3973 3878 3968 3917 3908 3731 4009 3666 3737 3522
934 1090 1132 1148 1249 323 232 198 195 311 354 342 392 460 476 764 968 1031 1405 1561 1755 1956 2000 1958 2138 2171 2108 2208 2122 2162 2092 2059 2349 2394 2266 2115 2372 2072 2588 3055 3150 3060 3052 3154 3541 3392 3309 3276 3541 3436 3419 3414 3324 3899 3994 3886 3937 3659 3877 4114 3737 3395 3632
980 1044 1349 1339 1050 1086 285 207 171 181 235 263 400 394 474 969 896 1219 1376 1397 1616 1824 1901 1845 1872 1855 2065 2204 2141 2221 2116 2152 2097 1886 1810 1887 2192 2229 2524 2784 2966 2821 3103 3064 2899 3020 2742 3188 3461 3668 3732 3626 3674 3681 3700 3591 3502 3688 3755 4120 3819 3625 3714
875 1045 1091 1247 1504 1515 796 209 14 184 203 346 583 556 534 782 876 1096 1163 1272 1251 1477 1562 1650 1566 1671 1846 2017 1927 1949 2003 1980 2121 2099 2058 2099 2434 2549 2464 2216 2440 2528 2679 2709 3051 3373 3440 3415 3111 3392 3596 3946 3638 3830 3881 3886 3589 4005 3943 4014 3814 3685 3501
758 978 1273 1491 1508 1422 1244 756 280 73 249 484 593 668 494 562 676 705 963 1157 1292 1474 1586 1579 1567 1718 1796 1754 1776 1818 2121 2273 2332 2548 2454 2593 2670 2398 2392 2432 2335 2408 2427 2707 2812 2848 3253 3177 2993 3110 2920 2975 2896 2992 3193 3499 3435 3429 3755 3958 3662 3198 2981
820 1098 1342 1713 1684 1800 1876 1694 1159 730 478 499 565 597 485 450 630 796 1195 1277 1539 1826 1865 1795 1699 1717 1797 1640 1773 2021 2142 2028 2150 2074 2203 2252 2316 2412 2412 2536 2557 2276 2288 2701 2813 2786 2960 3093 3222 3310 3098 2691 2987 2755 3216 3812 3640 3664 3854 4003 4079 4045 3859
987 1118 1253 1432 1632 1621 1781 1993 1887 1643 1402 1403 995 563 674 914 1042 1153 1218 1234 1639 1716 1701 1639 1618 1764 1895 1818 1815 1778 1885 1816 2030 2083 2186 2031 2145 2252 2247 2418 2667 2702 2764 2632 2760 2887 2784 3112 2902 3120 3091 2853 3073 3298 3237 3843 4194 3680 3621 3828 3920 3854 3308
1533 1374 1250 1189 1254 1210 700 707 1587 1839 1673 1350 1410 1618 1457 1219 1046 1077 1150 1338 1522 1578 1677 1526 1573 1789 1969 1972 1862 1870 1788 1822 2042 2158 2193 1922 1871 1862 1804 2179 2393 2704 2662 2326 2326 2765 2715 2917 2678 3282 3441 3048 3263 3657 3487 3973 3706 3606 3778 3841 3952 3911 3386
1582 1532 1551 1486 1390 1003 821 914 1458 1069 1356 1284 1167 1293 1319 667 308 1062 1575 1422 1436 1388 1620 1452 1533 1686 1815 1946 2000 1918 1752 1880 1876 1729 1813 1731 1802 1811 1784 1774 2078 2530 2406 2292 2041 2297 2714 2724 2742 3256 3664 3324 3481 3703 3538 3698 3541 3594 3697 4016 4030 3954 4052
1355 1336 1401 1327 1284 1337 1167 1128 880 727 1017 1332 1100 1293 1416 1482 1334 1262 1784 1304 1528 1882 2023 1966 1916 1882 1751 1731 1780 1916 1773 1644 1615 1664 1715 1634 1567 1688 1726 1789 1813 2150 2165 2145 2005 2084 2341 2830 2941 3161 3331 2866 3050 3306 3475 3436 3547 3771 3447 3624 3717 3972 3703
1222 1197 1174 1367 1413 1269 1122 1133 1109 1033 887 796 858 912 958 1005 1140 1308 1391 1130 1516 1278 1144 1272 1894 2061 1782 1877 1860 2084 2202 1835 1608 1624 1710 1658 1575 1579 1627 1684 1706 1854 2122 2075 2076 2182 1994 2385 2544 2594 3025 2933 2883 2927 3189 3452 3611 3716 3652 3338 3453 3748 3706
1270 1262 1282 1288 1308 1314 1275 1104 1021 939 794 828 872 875 848 784 890 895 917 1134 1081 1215 1478 1435 1318 1460 1999 2314 2137 2168 2164 2123 2036 1927 1686 1862 1746 1660 1712 1698 1637 1648 1777 2011 2033 2026 1841 1865 2169 2421 2509 2870 2789 2653 2924 3251 3092 3594 3775 3591 3626 3753 3774
957 881 826 876 1034 1070 1108 1018 1094 1134 1201 1128 1051 990 929 838 1189 1107 977 1004 1163 1265 1486 1629 1704 1625 1553 2000 2270 2236 1998 1830 2100 2049 2180 2313 2420 2194 1884 1734 1672 1760 1739 1883 1933 1874 1800 1706 1760 2089 2062 2278 2393 2565 2701 2974 2939 3337 3602 3467 3323 3366 3521
808 693 734 608 556 681 498 533 650 844 924 944 1045 1068 1026 922 835 778 756 737 1134 1247 1195 1340 1399 1460 1129 1204 1087 1177 1210 1481 2074 2282 2500 2612 2556 2512 2252 1959 1852 1849 1840 1783 1692 1556 1608 1610 1519 1501 1604 1614 1876 2002 2086 1876 2171 2348 2840 3037 3392 3194 2906
616 644 588 486 494 527 478 509 590 682 830 707 717 740 851 842 764 703 670 1041 1051 1222 1015 1275 1537 1134 974 855 940 941 927 939 1104 1490 1780 2052 2280 2461 2259 1916 1630 1407 1399 1542 1616 1675 1726 1709 1644 1419 1358 1407 1669 1808 1662 1740 1805 2140 1897 2001 2325 2784 2585
613 637 614 640 693 688 656 662 689 829 851 861 841 776 804 796 752 730 702 653 754 1050 1217 999 855 970 899 744 1028 933 997 1044 1034 983 1101 1297 1351 1364 1432 1442 1404 1498 1581 1470 1229 1300 1503 1434 1434 1392 1362 1351 1375 1447 1380 1357 1379 1502 1268 1194 1176 1800 2451
579 641 673 679 666 633 591 632 624 688 750 718 747 768 791 820 758 684 690 672 654 670 678 638 607 629 902 917 919 937 884 969 1003 1068 1128 1090 1128 1210 1275 1260 1248 1287 1404 1384 1406 1432 1219 1138 1271 1420 1245 1164 1126 1137 1124 1184 1014 914 862 834 880 958 1804
571 578 656 656 701 659 624 632 648 731 743 742 765 779 747 765 710 631 529 604 653 603 642 687 668 648 616 688 674 945 750 845 959 981 1022 1099 1104 1264 1326 1173 1258 1354 1453 1573 1600 1512 1388 1334 1267 1384 1227 1208 1143 1027 795 906 676 707 711 695 639 643 861
557 552 571 547 663 676 647 607 636 697 769 758 743 720 754 746 651 593 481 509 534 564 628 656 663 679 688 688 685 710 725 755 775 790 856 923 1010 1171 1284 1053 1059 1386 1696 1695 1759 1491 1318 1139 1156 1331 1641 1478 1515 1528 1364 1143 736 626 592 572 515 455 423
481 425 526 520 512 588 593 515 467 542 567 566 533 486 510 568 523 451 446 462 478 548 546 547 529 518 530 533 589 639 673 716 733 744 767 790 788 842 1096 1208 1262 1167 1237 1302 1321 1366 1347 1234 1090 1064 1392 1234 1225 1202 1155 960 839 785 732 713 655 546 472
512 509 615 556 415 426 522 502 443 488 450 411 501 500 444 439 376 353 406 419 461 511 507 515 470 453 476 545 565 576 590 630 624 635 629 637 634 725 873 1027 1060 1118 1140 1166 1264 1228 1219 1285 1297 1462 1666 1717 1648 1478 1455 1273 983 984 990 984 958 881 809
667 512 508 448 400 423 530 418 532 300 234 274 363 414 468 473 364 309 317 299 324 417 457 435 446 442 440 495 536 480 512 525 556 661 680 658 661 727 855 863 920 911 958 979 1316 1474 1793 1641 1604 1731 1694 1632 1733 1642 1690 1905 1776 1006 976 1007 1028 1025 1002
356 407 398 382 375 389 423 435 497 356 217 146 0 118 299 375 374 283 270 318 324 338 378 380 395 421 363 377 442 355 334 412 369 371 42 354 571 734 771 809 908 919 979 944 992 1079 1136 1215 1220 1226 1272 1406 1484 1704 1628 1888 1988 1333 1209 1100 920 951 1122
153 128 123 155 162 199 265 357 422 361 276 194 124 126 193 274 299 231 240 236 219 266 282 309 253 345 382 401 400 451 0 314 340 307 308 193 309 298 786 899 963 925 892 907 936 1028 1110 1192 1241 1214 1273 1277 1365 1394 1525 1655 1576 1344 1240 1257 1219 1157 1168
186 134 126 125 127 127 139 164 182 169 171 141 123 158 153 223 226 210 186 127 14 7 70 188 203 215 228 252 292 287 362 322 307 348 337 316 349 337 593 744 852 948 812 623 886 992 1067 1059 1065 1072 1067 1108 1148 1165 1254 1311 1204 1252 1272 1248 1295 1298 1254
55 88 127 106 114 99 89 103 107 88 130 137 150 162 182 158 132 122 78 39 103 0 0 8 55 155 184 212 202 211 240 243 290 318 319 264 286 324 248 499 526 759 788 831 849 940 1020 983 946 938 989 1023 997 947 900 955 1130 1146 1111 1153 1239 1320 1363
8 16 26 59 54 45 26 26 6 10 0 0 112 145 139 137 108 0 0 0 0 0 0 0 0 54 154 162 143 185 209 186 126 0 54 41 169 110 131 161 264 321 327 470 481 437 528 812 884 955 887 776 779 755 724 730 824 874 766 789 946 975 1276
10 23 30 36 33 28 6 0 0 0 0 1 0 0 0 0 0 0 0 0 0 0 0 0 0 0 0 92 196 211 164 160 154 111 98 101 128 100 114 107 103 32 146 235 273 264 218 327 489 460 562 523 546 532 539 552 617 627 629 644 592 596 768
1 0 18 23 33 32 8 0 0 0 0 0 0 0 0 0 0 0 0 0 0 0 0 0 0 0 0 0 0 0 0 122 117 0 0 0 0 0 0 124 147 161 196 177 166 174 177 155 137 61 22 123 94 144 288 451 263 324 386 434 440 502 610
0 0 0 0 0 0 0 0 0 0 0 0 0 0 0 0 0 0 0 0 0 0 0 0 0 0 0 0 0 0 0 0 0 0 0 0 0 0 0 0 22 62 114 123 119 122 111 78 70 74 9 16 43 121 146 262 323 192 213 244 310 361 432
0 0 0 0 0 0 0 0 0 0 0 0 0 0 0 0 0 0 0 0 0 0 0 0 0 0 0 0 0 0 0 0 0 0 0 0 0 0 0 0 0 0 0 0 0 0 0 0 0 0 0 65 4 9 10 16 25 1 0 15 109 132 216
0 0 0 0 0 0 0 0 0 0 0 0 0 0 0 0 0 0 0 0 0 0 0 0 0 0 0 0 0 0 0 0 0 0 0 0 0 0 0 0 0 0 0 0 0 0 0 0 0 0 0 0 0 0 0 0 0 0 0 0 0 0 0
0 0 0 0 0 0 0 0 0 0 0 0 0 0 0 0 0 0 1 0 0 2 2 0 0 0 0 0 0 0 0 0 0 0 0 0 0 0 0 0 0 0 0 0 0 0 0 0 0 0 0 0 0 0 0 0 0 0 0 0 0 0 0
0 0 0 0 0 0 0 0 0 0 0 0 0 0 0 0 0 3 8 12 13 12 5 4 7 3 1 0 0 0 0 0 0 0 0 0 0 0 0 0 0 0 0 0 0 0 0 0 0 0 0 0 0 0 0 0 0 0 0 0 0 0 0
0 0 12 3 0 0 0 0 0 0 0 0 0 0 0 0 0 2 0 4 10 11 5 4 3 1 1 2 2 0 0 0 0 0 0 0 0 0 0 0 0 0 0 0 0 0 0 0 0 0 0 0 0 0 0 0 0 0 0 0 0 0 0
1 1 0 4 0 0 0 0 0 0 0 0 0 0 0 0 0 0 0 0 0 0 0 1 0 0 0 0 1 1 0 0 0 0 0 0 0 0 0 0 1 0 0 0 0 0 0 0 0 0 0 0 0 0 0 0 0 0 0 0 0 0 0
0 0 0 1 0 0 0 0 0 0 0 0 0 0 0 0 0 0 0 0 0 0 0 0 0 0 0 0 0 1 2 0 0 0 0 1 0 0 0 0 0 0 2 0 0 0 0 0 0 0 0 0 0 0 0 0 0 0 0 0 0 0 0
Wind_Speed
15 19 18 17 16 13 11 10 9 10 11 10 9 7 8 10 11 12 11 11 8 9 9 9 9 9 8 8 8 9 9 9 9 7 7 6 6 6 4 3 2 2 2 3 4 5 6 6 6 6 6 6 5 5 5 5 5 6 6 6 6 6 7
14 19 23 22 19 17 16 13 13 13 12 11 11 9 9 9 12 11 11 9 7 7 9 9 9 10 9 9 9 9 10 9 9 9 8 9 9 8 5 5 3 3 2 3 5 5 5 5 5 5 5 5 4 5 4 4 3 4 5 5 6 6 5
12 18 22 24 24 25 24 20 16 14 12 12 11 10 9 11 11 10 11 11 8 8 9 8 9 10 10 10 10 10 10 10 10 9 8 7 6 5 6 6 5 4 3 3 4 5 5 5 5 5 5 5 5 5 4 4 3 3 4 5 5 5 5
10 15 21 25 27 31 30 26 20 16 13 11 11 9 10 11 11 11 11 10 9 9 8 8 9 9 10 11 11 12 11 11 11 9 8 9 9 8 9 7 7 6 6 3 3 3 5 5 5 6 6 6 6 6 5 5 5 4 4 4 4 5 4
11 16 19 22 28 33 31 23 nan 17 14 15 15 14 14 14 12 11 9 9 8 6 6 6 8 8 11 11 13 14 12 12 12 11 11 11 11 11 10 8 8 7 6 5 5 5 5 5 5 6 6 6 6 7 6 6 5 5 5 4 4 5 4
11 17 20 21 25 34 35 25 19 nan 19 20 18 16 18 16 13 9 8 8 8 9 9 8 8 10 10 11 12 14 15 14 14 14 13 13 13 12 11 10 9 8 7 7 8 6 6 5 5 6 5 6 6 7 7 7 6 5 5 5 4 4 4
16 19 21 20 20 28 35 32 27 24 22 22 23 23 22 18 14 13 13 11 10 10 10 9 10 11 12 13 13 14 14 14 14 13 13 12 12 12 13 12 12 11 10 11 10 9 8 7 6 6 6 6 7 7 8 7 7 7 7 6 5 4 3
19 19 19 19 17 21 31 33 30 29 29 31 31 28 25 24 21 17 14 13 13 13 13 12 11 12 14 14 15 14 14 14 15 14 14 13 13 13 13 14 14 14 13 12 12 11 10 9 8 8 7 6 7 8 8 8 8 7 7 6 6 4 5
20 19 19 17 15 20 29 32 31 31 33 36 34 28 25 24 20 16 15 16 17 16 17 17 16 16 15 15 15 14 15 15 15 15 14 13 13 13 13 15 16 17 15 14 15 14 13 11 10 10 9 9 9 9 9 10 9 9 8 8 6 5 5
21 19 18 18 17 18 21 27 34 35 34 33 30 25 23 21 15 18 22 22 22 20 19 18 17 16 14 14 14 14 14 15 15 14 14 13 15 15 15 17 18 19 17 16 16 17 16 14 13 13 12 11 11 11 10 10 10 10 9 8 8 7 6
25 23 20 18 16 16 18 22 25 29 34 34 29 27 25 24 26 32 33 33 30 27 24 22 20 18 15 14 14 14 14 14 15 15 14 14 16 16 17 18 19 20 19 19 18 18 18 18 17 16 15 14 13 12 12 11 11 10 9 9 9 9 8
28 26 23 21 20 19 20 20 21 24 26 28 28 28 29 32 35 33 31 27 26 24 21 20 23 23 21 19 16 16 16 15 16 16 15 15 16 18 20 20 20 20 21 21 20 20 19 19 18 18 17 16 15 14 14 13 12 12 11 10 10 10 10
29 27 25 24 22 21 24 26 25 20 21 23 25 26 31 34 35 35 33 32 30 27 26 27 29 30 29 23 19 20 20 20 19 18 16 17 18 20 22 23 22 22 22 23 22 21 19 19 19 21 19 18 16 16 16 14 14 14 13 12 12 12 11
34 33 29 26 26 27 27 27 27 24 23 24 24 24 27 29 30 32 34 33 31 29 30 32 31 30 29 26 24 24 26 25 24 20 18 20 22 23 23 24 25 25 25 25 23 21 20 19 20 21 21 20 19 18 17 16 15 15 15 15 14 14 12
35 35 34 32 31 31 30 28 28 27 25 26 26 26 27 28 28 29 31 33 32 31 31 31 29 29 29 30 28 27 28 29 30 28 25 25 26 25 25 26 27 28 28 27 25 24 22 21 21 21 21 21 20 19 18 17 17 18 18 17 16 15 13
37 36 35 35 36 37 37 36 35 35 35 35 35 34 33 32 30 28 27 29 28 26 28 29 28 27 25 27 27 27 27 29 32 34 33 30 30 31 31 31 30 28 28 28 27 27 27 26 24 23 22 22 21 20 19 19 19 21 18 17 17 16 16
41 40 39 39 39 41 43 42 41 38 38 38 39 39 37 36 35 32 29 27 26 25 27 28 27 24 24 24 26 26 27 29 30 35 35 34 36 37 35 34 32 31 31 30 31 31 31 28 26 24 24 23 22 21 20 19 20 22 19 17 15 15 16
45 44 43 43 42 42 43 43 41 40 39 39 38 37 36 35 34 33 32 29 28 27 26 24 21 19 20 23 23 23 24 26 29 31 33 36 38 39 37 34 32 31 30 30 31 33 32 30 30 28 27 26 24 23 22 21 23 23 20 18 16 17 16
48 47 46 44 43 41 41 42 42 41 41 40 39 38 37 35 36 35 34 34 34 34 33 33 30 28 27 21 18 20 22 23 24 25 28 33 38 37 33 34 33 31 30 30 31 32 32 32 32 31 29 28 27 26 25 23 26 23 21 18 17 16 17
47 47 46 43 40 38 37 39 40 41 42 43 43 43 41 40 39 37 35 33 33 34 34 34 34 35 35 36 33 25 21 19 18 20 25 29 35 37 35 35 34 33 33 34 33 32 31 30 30 32 32 31 29 28 27 25 27 25 22 19 17 16 19
43 44 43 41 40 39 37 36 38 40 42 42 42 41 42 42 40 39 38 36 36 34 33 33 34 34 34 36 34 33 32 30 27 23 21 23 29 33 34 35 36 35 35 35 32 31 32 33 33 33 32 30 29 28 27 26 29 26 24 21 19 18 19
42 44 43 40 40 39 38 37 36 37 40 41 42 41 41 41 41 43 42 40 39 37 35 35 35 34 32 31 31 32 33 32 28 26 24 23 25 29 32 33 35 38 41 39 36 33 33 34 34 34 35 34 33 30 29 30 35 29 27 25 24 24 22
42 42 42 42 41 40 39 38 38 38 40 42 43 42 41 39 41 43 44 43 40 39 38 38 37 35 33 32 31 31 30 29 26 25 25 22 21 23 24 28 36 42 43 44 42 37 36 36 37 38 37 36 36 34 33 32 38 34 31 31 32 28 24
45 42 41 42 42 42 42 42 41 39 41 43 nan 42 41 40 41 43 44 44 42 42 41 40 38 35 34 33 34 33 31 29 27 25 nan 21 21 22 21 20 25 34 41 44 44 42 41 39 40 41 41 38 36 37 37 35 40 36 34 33 32 29 27
45 44 43 42 42 42 42 42 42 42 42 44 45 43 44 43 43 44 44 43 43 42 41 40 37 34 33 33 33 33 nan 31 31 29 28 27 24 22 20 16 14 15 22 32 38 42 44 43 42 42 43 44 42 43 39 37 41 43 43 41 35 32 30
47 46 44 43 42 42 41 40 42 42 43 45 45 44 44 44 44 44 44 44 nan nan nan 41 38 36 36 35 35 34 33 32 31 30 29 28 27 28 26 22 20 17 15 17 22 28 34 38 41 42 41 41 42 44 45 42 43 48 46 43 41 37 34
nan nan 45 44 43 nan nan 42 42 nan 43 42 42 42 43 43 44 44 nan nan 45 nan nan nan nan 38 38 37 37 37 35 33 31 30 28 25 24 25 25 26 27 25 21 17 15 15 19 25 32 40 45 45 44 44 46 48 48 46 46 44 43 40 37
nan nan nan nan nan nan nan nan nan nan nan nan 42 42 42 43 44 nan nan nan nan nan nan nan nan nan 40 39 38 37 36 35 32 nan nan nan 27 27 25 22 24 28 30 27 24 21 21 20 24 30 37 41 44 45 45 47 50 43 41 42 43 43 39
nan nan nan nan nan nan nan nan nan nan nan nan nan nan nan nan nan nan nan nan nan nan nan nan nan nan nan nan 39 38 37 35 33 29 nan 28 29 29 29 27 26 nan 30 30 29 28 28 26 25 25 28 31 34 37 40 43 44 45 42 42 44 42 39
nan nan nan nan nan nan nan nan nan nan nan nan nan nan nan nan nan nan nan nan nan nan nan nan nan nan nan nan nan nan nan 35 33 nan nan nan nan nan nan 30 29 28 27 27 27 27 27 28 28 nan nan 29 nan 28 30 33 36 39 41 41 42 41 40
nan nan nan nan nan nan nan nan nan nan nan nan nan nan nan nan nan nan nan nan nan nan nan nan nan nan nan nan nan nan nan nan nan nan nan nan nan nan nan nan nan nan 27 27 28 28 28 nan nan nan nan nan nan 28 28 28 28 29 31 34 35 36 36
nan nan nan nan nan nan nan nan nan nan nan nan nan nan nan nan nan nan nan nan nan nan nan nan nan nan nan nan nan nan nan nan nan nan nan nan nan nan nan nan nan nan nan nan nan nan nan nan nan nan nan nan nan nan nan nan nan nan nan nan 30 30 29
nan nan nan nan nan nan nan nan nan nan nan nan nan nan nan nan nan nan nan nan nan nan nan nan nan nan nan nan nan nan nan nan nan nan nan nan nan nan nan nan nan nan nan nan nan nan nan nan nan nan nan nan nan nan nan nan nan nan nan nan nan nan nan
nan nan nan nan nan nan nan nan nan nan nan nan nan nan nan nan nan nan nan nan nan nan nan nan nan nan nan nan nan nan nan nan nan nan nan nan nan nan nan nan nan nan nan nan nan nan nan nan nan nan nan nan nan nan nan nan nan nan nan nan nan nan nan
nan nan nan nan nan nan nan nan nan nan nan nan nan nan nan nan nan nan nan nan nan nan nan nan nan nan nan nan nan nan nan nan nan nan nan nan nan nan nan nan nan nan nan nan nan nan nan nan nan nan nan nan nan nan nan nan nan nan nan nan nan nan nan
nan nan nan nan nan nan nan nan nan nan nan nan nan nan nan nan nan nan nan nan nan nan nan nan nan nan nan nan nan nan nan nan nan nan nan nan nan nan nan nan nan nan nan nan nan nan nan nan nan nan nan nan nan nan nan nan nan nan nan nan nan nan nan
nan nan nan nan nan nan nan nan nan nan nan nan nan nan nan nan nan nan nan nan nan nan nan nan nan nan nan nan nan nan nan nan nan nan nan nan nan nan nan nan nan nan nan nan nan nan nan nan nan nan nan nan nan nan nan nan nan nan nan nan nan nan nan
nan nan nan nan nan nan nan nan nan nan nan nan nan nan nan nan nan nan nan nan nan nan nan nan nan nan nan nan nan nan nan nan nan nan nan nan nan nan nan nan nan nan nan nan nan nan nan nan nan nan nan nan nan nan nan nan nan nan nan nan nan nan nan
Wind_Direction
242 240 240 243 246 244 235 224 225 224 220 218 217 222 228 224 222 224 224 225 225 224 225 222 219 224 234 227 228 229 232 236 231 233 237 236 236 243 250 232 223 219 232 244 242 230 230 233 232 230 226 222 208 210 209 210 209 206 206 206 203 202 194
251 242 236 236 245 247 242 231 225 222 217 213 214 222 226 232 225 222 219 224 224 227 233 226 222 222 230 232 232 236 239 245 243 233 232 233 235 237 242 249 240 231 223 225 241 242 239 246 247 247 241 235 220 216 213 214 214 208 204 208 203 208 205
253 249 245 239 237 240 242 232 222 218 218 212 213 220 226 231 233 229 224 223 219 217 222 226 225 225 226 229 234 238 238 241 244 245 241 233 245 246 244 244 247 234 224 232 240 253 257 257 262 259 255 242 231 236 223 224 227 225 226 221 212 208 206
254 259 253 246 242 235 237 230 220 213 211 212 215 221 225 233 234 228 229 231 231 222 221 219 223 224 224 227 229 232 235 236 237 238 237 233 239 242 243 244 242 240 240 237 244 253 261 271 280 274 269 252 246 237 235 228 228 238 244 244 224 222 209
249 260 260 261 251 237 230 222 nan 213 215 216 214 213 216 227 229 226 230 231 232 233 231 235 227 228 225 229 226 227 232 236 235 232 233 232 235 238 240 243 248 252 248 244 246 250 262 275 282 282 274 263 255 255 252 249 241 245 247 253 240 248 237
252 256 253 261 258 241 230 223 212 nan 217 218 217 216 217 224 222 221 224 234 229 224 223 226 229 232 232 232 229 231 235 235 233 232 233 234 236 237 240 241 242 244 250 252 248 247 260 261 273 282 284 272 260 253 254 257 257 257 259 256 248 244 244
247 255 254 254 262 246 231 226 223 222 222 222 221 220 219 219 215 212 216 220 228 234 236 234 229 228 227 227 225 231 237 237 236 235 231 232 236 236 239 240 239 237 234 244 246 245 250 255 259 268 274 268 261 254 252 253 253 258 259 262 265 267 265
247 254 259 258 251 242 232 230 228 223 222 222 222 220 220 217 215 212 214 213 219 222 221 220 223 224 229 229 228 228 228 232 235 236 233 233 235 235 238 239 242 240 236 237 244 246 246 249 249 254 259 261 262 258 254 252 255 252 255 260 265 268 273
244 252 261 260 250 233 234 232 227 224 225 227 227 227 230 227 220 221 224 225 223 225 225 225 223 224 226 231 236 237 233 233 235 237 235 233 231 233 235 239 241 243 240 235 239 245 242 243 240 245 247 245 248 252 249 251 248 248 252 254 259 258 251
248 248 249 250 243 236 238 233 229 226 227 229 229 226 230 235 223 225 229 232 233 233 236 242 242 242 241 237 238 245 248 245 240 241 238 232 229 230 232 233 239 244 243 240 237 242 243 240 237 237 237 235 238 242 241 245 244 246 251 258 260 259 260
248 251 252 253 253 249 249 249 241 232 228 228 230 227 227 229 230 230 228 227 228 233 238 245 251 252 250 251 254 255 255 255 253 251 248 237 230 230 232 232 234 241 244 243 241 242 243 244 241 238 234 229 229 232 236 238 240 243 241 245 251 256 254
247 249 251 255 258 259 260 258 250 244 242 236 232 231 228 227 233 238 242 245 243 242 240 245 249 250 247 244 248 254 259 256 252 252 253 248 238 234 234 234 234 236 242 244 245 245 244 247 247 245 242 235 229 228 229 231 235 239 235 233 239 247 249
245 248 249 251 254 252 250 249 249 258 257 251 250 238 234 234 235 235 235 235 236 237 237 238 240 239 237 238 246 250 251 251 249 245 244 248 245 239 237 236 235 235 237 242 244 244 244 248 250 251 248 245 239 234 232 231 232 236 235 233 234 238 241
243 242 246 252 254 253 253 254 263 267 264 267 265 258 255 254 250 242 237 238 238 239 238 239 244 248 250 249 250 252 250 245 242 239 239 241 243 243 239 236 236 236 237 239 243 243 242 241 246 249 250 249 245 242 238 235 233 236 237 236 235 236 238
246 245 245 250 253 253 255 257 263 267 266 265 268 272 271 268 263 251 239 235 238 240 241 243 248 249 249 247 247 248 252 253 248 241 237 237 238 240 240 240 239 239 239 239 239 241 242 241 239 239 242 245 246 245 244 239 236 236 239 240 242 242 237
246 246 249 253 256 256 255 255 256 258 257 256 259 262 262 262 265 262 250 241 243 247 248 251 254 258 258 260 259 258 256 255 251 247 242 239 239 238 238 239 240 240 240 240 240 241 242 242 241 239 238 239 243 246 246 246 243 248 252 245 239 241 241
251 250 252 257 258 257 256 254 256 258 257 255 254 256 256 256 257 258 253 246 243 245 249 251 255 260 261 258 259 263 262 259 256 254 249 242 239 238 237 236 239 241 241 241 239 239 241 243 245 245 242 240 238 239 240 241 245 259 263 262 259 247 243
256 257 257 259 259 257 253 250 250 252 252 249 244 243 245 246 246 246 245 244 244 243 244 252 255 256 255 255 256 260 263 261 261 261 256 247 246 245 241 238 237 239 241 241 242 240 238 239 241 243 244 242 239 236 235 234 241 254 257 259 260 259 250
260 261 261 261 258 254 252 251 250 249 248 245 241 240 237 238 239 237 235 234 236 241 242 241 241 240 239 245 255 262 267 268 268 267 261 254 250 247 243 242 240 240 240 240 240 240 239 237 238 240 242 242 242 238 236 233 245 251 250 250 253 258 256
265 264 263 262 257 250 248 251 250 248 248 248 246 245 244 243 240 236 232 231 231 236 240 240 242 244 243 242 243 247 259 268 273 275 270 264 255 247 244 244 240 237 237 237 238 238 238 237 237 237 239 239 239 237 235 234 244 252 251 250 251 254 258
266 266 263 260 255 250 247 249 251 247 245 246 246 245 248 246 243 239 236 235 236 235 237 239 241 242 243 245 245 247 249 250 250 260 273 279 269 255 244 246 248 244 240 238 237 235 234 235 235 235 235 236 236 236 235 235 247 251 251 251 251 251 256
265 265 262 258 256 251 248 245 247 247 245 245 244 242 244 245 242 241 238 236 237 237 236 236 239 239 239 241 241 241 241 243 246 251 256 268 276 265 249 243 245 247 245 244 241 237 235 235 235 235 236 236 236 234 236 236 250 247 246 247 246 252 250
258 260 262 261 258 254 250 248 248 247 247 244 242 240 239 240 241 240 239 237 235 237 236 235 236 235 235 237 236 236 238 239 241 248 256 267 281 278 262 246 241 243 245 244 245 245 242 240 239 237 234 234 235 234 234 236 245 243 244 245 250 254 250
258 258 259 261 259 255 251 248 246 246 248 246 nan 238 236 236 237 239 240 240 240 240 239 237 237 237 237 237 237 238 242 244 245 244 nan 252 269 279 276 258 245 239 238 242 247 248 247 246 244 241 236 233 233 234 235 235 245 244 241 243 247 244 246
256 257 258 259 261 258 253 249 248 249 247 244 240 236 235 235 237 240 241 241 241 242 242 240 238 236 239 240 240 240 nan 245 247 247 248 251 254 257 259 259 252 245 242 243 246 247 244 242 243 241 238 235 232 236 237 238 244 241 239 241 246 243 245
252 253 252 253 253 254 253 250 249 247 246 243 240 238 237 237 237 239 240 241 nan nan nan 241 239 237 240 242 243 243 243 244 245 249 254 258 256 250 247 248 256 262 258 246 244 246 243 242 241 241 240 238 237 237 237 236 238 238 239 244 243 238 241
nan nan 254 254 254 nan nan 249 249 nan 247 244 243 242 240 239 238 239 nan nan 242 nan nan nan nan 241 241 242 244 245 247 247 245 245 247 248 250 252 251 252 256 254 251 251 251 252 247 245 245 244 241 240 241 240 241 242 246 244 242 241 242 241 239
nan nan nan nan nan nan nan nan nan nan nan nan 245 244 243 243 241 nan nan nan nan nan nan nan nan nan 244 243 243 244 245 246 245 nan nan nan 245 247 248 253 256 255 255 259 264 262 259 259 257 253 246 241 241 242 244 246 246 245 244 245 245 241 237
nan nan nan nan nan nan nan nan nan nan nan nan nan nan nan nan nan nan nan nan nan nan nan nan nan nan nan nan 244 243 243 244 243 243 nan 239 241 245 248 252 255 nan 257 262 264 262 258 258 258 254 248 243 241 241 242 245 247 243 245 247 245 244 238
nan nan nan nan nan nan nan nan nan nan nan nan nan nan nan nan nan nan nan nan nan nan nan nan nan nan nan nan nan nan nan 242 243 nan nan nan nan nan nan 247 249 250 250 252 255 256 257 257 254 nan nan 249 nan 248 248 249 250 246 242 244 245 241 239
nan nan nan nan nan nan nan nan nan nan nan nan nan nan nan nan nan nan nan nan nan nan nan nan nan nan nan nan nan nan nan nan nan nan nan nan nan nan nan nan nan nan 244 246 248 249 252 nan nan nan nan nan nan 254 253 253 255 252 249 244 240 241 238
nan nan nan nan nan nan nan nan nan nan nan nan nan nan nan nan nan nan nan nan nan nan nan nan nan nan nan nan nan nan nan nan nan nan nan nan nan nan nan nan nan nan nan nan nan nan nan nan nan nan nan nan nan nan nan nan nan nan nan nan 242 243 240
nan nan nan nan nan nan nan nan nan nan nan nan nan nan nan nan nan nan nan nan nan nan nan nan nan nan nan nan nan nan nan nan nan nan nan nan nan nan nan nan nan nan nan nan nan nan nan nan nan nan nan nan nan nan nan nan nan nan nan nan nan nan nan
nan nan nan nan nan nan nan nan nan nan nan nan nan nan nan nan nan nan nan nan nan nan nan nan nan nan nan nan nan nan nan nan nan nan nan nan nan nan nan nan nan nan nan nan nan nan nan nan nan nan nan nan nan nan nan nan nan nan nan nan nan nan nan
nan nan nan nan nan nan nan nan nan nan nan nan nan nan nan nan nan nan nan nan nan nan nan nan nan nan nan nan nan nan nan nan nan nan nan nan nan nan nan nan nan nan nan nan nan nan nan nan nan nan nan nan nan nan nan nan nan nan nan nan nan nan nan
nan nan nan nan nan nan nan nan nan nan nan nan nan nan nan nan nan nan nan nan nan nan nan nan nan nan nan nan nan nan nan nan nan nan nan nan nan nan nan nan nan nan nan nan nan nan nan nan nan nan nan nan nan nan nan nan nan nan nan nan nan nan nan
nan nan nan nan nan nan nan nan nan nan nan nan nan nan nan nan nan nan nan nan nan nan nan nan nan nan nan nan nan nan nan nan nan nan nan nan nan nan nan nan nan nan nan nan nan nan nan nan nan nan nan nan nan nan nan nan nan nan nan nan nan nan nan
nan nan nan nan nan nan nan nan nan nan nan nan nan nan nan nan nan nan nan nan nan nan nan nan nan nan nan nan nan nan nan nan nan nan nan nan nan nan nan nan nan nan nan nan nan nan nan nan nan nan nan nan nan nan nan nan nan nan nan nan nan nan nan